Cloud_Cover
43 100 100 100 100 100 94 96 100 100 100 100 100 99 87 100 11 100 100 40 100 100 6 9 1 2 0 0 0 0 0 0 0 0 4 1 4 3
76 94 99 100 100 97 91 99 100 100 100 100 100 100 100 100 94 97 100 100 100 100 100 100 73 100 6 21 3 3 5 5 5 4 4 4 5 2
10 7 100 100 100 100 100 87 100 100 100 100 100 100 100 100 100 100 100 100 100 100 100 100 95 100 100 6 89 6 5 5 5 7 74 77 100 66
7 92 100 100 100 100 100 100 100 100 100 100 100 100 100 100 100 100 100 100 100 100 100 100 98 100 100 100 100 46 99 88 36 5 6 5 5 93
65 30 95 95 100 100 100 100 100 100 100 100 100 100 100 100 100 100 100 100 100 100 100 100 100 100 100 100 100 100 100 100 100 100 74 6 5 5
86 70 59 39 100 100 100 100 100 100 100 100 100 100 100 100 100 100 100 100 100 100 100 100 100 100 100 100 100 100 100 100 100 100 100 100 32 14
99 100 100 94 100 100 100 100 100 100 100 100 100 100 100 100 100 100 100 100 100 100 100 100 100 100 100 100 100 100 100 100 100 100 62 100 100 45
5 100 100 100 100 98 100 100 100 100 100 100 100 100 100 100 100 100 100 100 100 100 100 100 100 100 100 100 100 100 100 100 100 100 100 51 100 96
16 12 98 100 100 100 100 100 96 99 100 100 100 100 100 100 100 100 100 100 100 100 100 100 100 100 100 100 100 100 100 100 100 100 100 100 100 100
51 81 5 87 100 100 100 100 91 100 100 100 100 100 100 100 100 100 100 100 100 100 100 100 100 100 100 100 100 100 100 100 100 100 100 100 100 100
2 15 54 5 8 8 89 100 63 17 96 84 100 100 100 100 100 100 100 100 100 100 100 99 99 98 100 100 100 100 100 100 100 100 100 100 100 100
1 5 47 98 73 6 5 4 77 63 62 100 100 100 100 100 100 100 100 100 100 100 100 100 100 100 100 100 100 100 100 100 100 100 100 100 100 100
8 21 1 4 26 46 9 64 83 19 12 46 75 89 100 100 100 100 100 100 100 100 100 95 100 100 100 100 99 100 100 100 100 100 100 100 100 91
2 5 0 0 14 24 29 4 6 46 5 42 100 100 100 100 100 100 100 93 69 75 61 100 100 100 100 100 100 100 100 97 33 99 97 75 12 5
7 80 28 33 17 12 5 4 3 5 5 2 6 13 43 100 100 100 100 100 89 100 96 100 100 100 100 100 100 73 23 5 5 5 28 42 6 6
84 10 17 84 26 1 0 5 5 5 5 8 5 0 3 1 6 21 5 23 88 98 43 88 57 57 59 92 53 52 86 11 4 1 5 74 80 47
100 85 94 75 50 31 18 29 53 28 5 5 5 5 2 4 5 34 64 100 81 100 57 5 9 7 12 5 17 84 45 38 40 30 98 36 28 56
100 100 100 37 75 66 92 37 73 91 71 18 21 5 12 91 58 17 5 6 56 72 68 56 67 68 63 88 67 87 100 100 97 100 99 100 91 75
100 100 98 100 100 71 37 86 100 100 100 100 100 99 91 99 85 6 44 99 97 76 87 77 73 100 91 94 100 69 94 90 98 98 30 96 86 100
100 100 100 100 100 98 96 46 18 68 88 100 100 100 100 100 95 100 100 100 69 65 100 100 100 92 100 100 98 54 92 100 100 100 100 100 100 100
100 100 100 100 100 100 100 100 90 100 89 72 96 100 100 100 100 100 100 100 100 100 100 100 100 100 96 100 100 100 100 98 99 100 100 100 100 100
100 100 100 100 100 100 100 100 100 100 100 100 100 100 100 100 100 100 100 100 100 100 100 100 100 100 100 100 100 100 100 92 100 100 100 96 100 95
100 100 100 100 100 100 100 100 100 100 100 100 100 100 100 100 100 100 100 100 100 100 100 100 100 98 99 100 100 100 100 100 96 59 47 100 100 100